www.pogodaiklimat.ru

Погода и климат >> Архив погоды >> Россия >> Крым >> Симферополь


АРХИВ ПОГОДЫ в Симферополе

Время (UTC), дата Ветер
(напр.,м/с)
 
Видим.   Явления Облачность Т
(С)
Тd
(С)
f
(%)
Тe
(С)
Тes
(С)
Комфортность P
(гПа)
Po
(гПа)
Тmin
(С)
Tmax
(С)
R
(мм)
R24
(мм)
S
(см)
21 11.07 З 1 10 км 3/0
[Ac trans]
+15.9 +10.2 69 +17 +17 прохладно 1008.6 987.4
00 12.07 Ю 3 10 км ясно +14.6 +11.2 80 +14 +14 прохладно 1008.7 987.4
03 12.07 ЮВ 4 10 км 4/1 1000 м
[Cb calv Ci fib]
+15.0 +11.6 80 +14 +14 холодно 1008.7 987.4 +13.7
06 12.07 З 4 10 км 6/3 1000 м
[Cb calv Ac trans]
+21.9 +12.7 56 +24 +28 комфорт 1008.8 988.0 +13.7
09 12.07 СВ 2 10 км в посл. час гроза {ливн. осадки} 9/5 1000 м
[Cb cap Ac trans]
+21.8 +12.1 54 +24 +29 комфорт 1008.9 988.1
12 12.07 Ю 6
{10}
10 км гроза, ливневой дождь 10/6 840 м
[Cb cap Ac und]
+16.0 +12.9 82 +15 +15 очень
холодно
1010.2 989.0
15 12.07 ЮВ 5 10 км гроза, ливневой дождь 10/8 1200 м
[Cb cap Ac und]
+14.5 +13.7 95 +13 +13 очень
холодно
1010.6 989.3 4
18 12.07 ЮВ 5 10 км слаб. ливневой дождь {гроза} 10/5 1200 м
[Cb calv Ac und]
+14.7 +13.4 92 +13 +13 очень
холодно
1011.0 989.7 +22.6 9
21 12.07 Ю 4 10 км зарница {ливн. осадки} 6/3 600 м
[Cb calv Ac trans]
+13.4 +12.1 92 +12 +12 очень
холодно
1011.0 989.6
00 13.07 Ю 3 10 км гроза без осадков {ливн. осадки} 3/3 1000 м
[Cb calv]
+12.5 +11.4 93 +11 +11 холодно 1010.5 989.0
03 13.07 Ю 4 10 км {гроза} 3/0
[Ci fib]
+13.7 +11.9 89 +12 +12 очень
холодно
1010.0 988.6 +12.3 5
06 13.07 ЮЗ 4 10 км {гроза} 1/1 1000 м
[Cb calv]
+20.1 +14.7 71 +22 +28 комфорт 1010.4 989.5 +12.3 0.5
09 13.07 ЮЗ 4 10 км 8/8 1260 м
[Cb calv]
+23.0 +11.1 47 +25 +28 комфорт 1010.2 989.5
12 13.07 В 3
{10}
10 км гроза без осадков 8/8 1320 м
[Cb cap]
+22.1 +11.2 50 +24 +27 комфорт 1010.2 989.4
15 13.07 З 7
{10}
10 км {гроза} 3/3 1000 м
[Cb calv]
+23.1 +11.2 47 +25 +26 комфорт 1009.9 989.2
18 13.07 ЮЗ 3 10 км {гроза} 1/1 1000 м
[Cb calv]
+17.8 +13.5 76 +18 +18 прохладно 1011.3 990.2 +25.0
21 13.07 Ю 2 10 км ясно +16.8 +13.7 82 +17 +17 прохладно 1011.5 990.3
00 14.07 ЮВ 3 10 км ясно +15.1 +13.1 88 +14 +14 прохладно 1010.6 989.3
03 14.07 ЮВ 3 10 км 10/0
[Ci fib]
+15.7 +12.6 82 +15 +15 холодно 1010.5 989.2 +14.0
06 14.07 В 4 10 км 8/0
[Ci fib]
+22.1 +11.8 52 +24 +29 комфорт 1009.5 988.7 +14.0
09 14.07 В 3 10 км 8/5 1200 м
[Cb calv Ci fib]
+25.1 +11.3 42 +26 +33 жарко 1008.2 987.6
12 14.07 ЮЗ 4 10 км 10/5 1200 м
[Cb calv Ci fib]
+26.1 +12.2 42 +28 +31 жарко 1007.0 986.5
15 14.07 З 5
{11}
10 км гроза без осадков 8/5 1020 м
[Cb cap Ci fib]
+23.0 +12.9 53 +26 +27 жарко 1007.3 986.6
18 14.07 З 2 10 км {гроза, ливн. осадки} 4/1 1000 м
[Sc diur, vesp Ci fib]
+18.5 +16.1 86 +20 +20 прохладно 1007.9 986.9 +27.3 0.8
21 14.07 В 2 10 км 3/0
[Ci fib]
+17.9 +15.7 87 +18 +18 по сезону 1007.4 986.4
00 15.07 В 3 10 км 4/0
[Ci fib]
+15.8 +14.0 89 +15 +15 по сезону 1006.2 985.0
03 15.07 В 3 10 км 10/1 1000 м
[Cb calv Ac trans Ci]
+16.4 +14.4 88 +16 +16 прохладно 1005.7 984.6 +14.6 0.8
06 15.07 СВ 5 10 км 10/0
[Ci sp]
+22.0 +14.9 64 +25 +29 комфорт 1005.3 984.6 +14.6
09 15.07 СВ 4 10 км 10/4 960 м
[Cb calv Ci sp]
+24.6 +15.5 57 +28 +34 душно 1004.2 983.7
12 15.07 В 7-10
{10}
10 км {гроза} 10/4 1200 м
[Cb calv As trans]
+25.9 +12.0 42 +27 +28 жарко 1003.7 983.3
15 15.07 З 4
{13}
10 км гроза без осадков 10/6 800 м
[Cb calv Ac und]
+20.0 +16.2 79 +23 +23 комфорт 1005.7 984.9
18 15.07 Ю 3 10 км в посл. час гроза 10/5 1080 м
[Cb calv Ac und]
+17.7 +15.1 85 +18 +18 прохладно 1007.3 986.3 +26.2
21 15.07 Ю 3 10 км 10/1 1000 м
[Cb calv Ac und]
+17.5 +14.8 84 +18 +18 по сезону 1007.4 986.4
00 16.07 ЮВ 3 10 км 10/0
[Ac trans Ci sp]
+17.0 +14.6 86 +17 +17 по сезону 1007.1 986.0
03 16.07 Ю 3 10 км 8/0
[Ac trans Ci fib]
+16.5 +14.7 89 +16 +16 прохладно 1007.2 986.1 +16.3
06 16.07 ЮЗ 3 10 км 4/0
[Ac trans Ci fib]
+22.5 +15.6 65 +26 +33 жарко 1007.2 986.5 +16.0
09 16.07 З 5 10 км 4/3 600 м
[Cb cap Ci fib]
+25.2 +13.7 49 +27 +34 жарко 1007.3 986.8
12 16.07 З 5
{10}
10 км гроза без осадков 6/6 1500 м
[Cb cap]
+26.8 +13.5 44 +29 +32 жарко 1007.1 986.7
15 16.07 З 7-10
{12}
10 км гроза без осадков 3/3 1000 м
[Cb cap]
+25.4 +14.2 50 +28 +28 жарко 1007.8 987.3
18 16.07 ЮЗ 3
{10}
10 км {гроза} 8/0
[Ci fib]
+19.6 +14.6 73 +22 +22 комфорт 1009.2 988.3 +28.0
21 16.07 ЮВ 2 10 км 3/0
[Ci fib]
+17.2 +14.7 85 +18 +18 по сезону 1009.7 988.6
00 17.07 ЮВ 3 10 км 3/0
[Ci fib]
+15.9 +13.7 87 +15 +15 по сезону 1009.3 988.1
03 17.07 ЮВ 3 10 км 10/0
[Ci fib]
+16.1 +13.8 86 +16 +16 прохладно 1009.1 987.9 +15.3
06 17.07 СВ 1 10 км 9/0
[Ci]
+22.7 +14.0 58 +26 +34 жарко 1008.5 987.8 +15.3
09 17.07 ЮЗ 1 10 км 5/3 1000 м
[Cb calv Ci fib]
+25.9 +10.1 37 +27 +41 жарко 1007.7 987.2
12 17.07 З 6
{11}
10 км 4/4 1500 м
[Cb calv]
+27.6 +13.2 41 +29 +33 жарко 1006.7 986.4
15 17.07 С 5
{10}
10 км 5/1 1000 м
[Cb calv Ac trans]
+25.5 +12.0 43 +27 +28 жарко 1006.6 986.1
18 17.07 В 3 10 км 4/1 1000 м
[Cb calv Ac trans]
+21.9 +15.7 68 +26 +26 душно 1007.7 987.0 +28.9
21 17.07 Ю 2 10 км ясно +18.5 +16.3 87 +20 +20 по сезону 1008.6 987.6
00 18.07 ЮВ 2 10 км 3/0
[Ac trans]
+17.9 +15.0 83 +18 +18 по сезону 1008.3 987.3
03 18.07 ЮВ 3
{10}
10 км ясно +17.0 +14.5 85 +17 +17 прохладно 1009.0 987.9 +15.8
06 18.07 СВ 3 10 км ясно +23.6 +14.0 55 +26 +33 жарко 1009.1 988.4 +15.8
09 18.07 СВ 3 10 км 3/3 1500 м
[Cu med, cong]
+28.1 +11.6 36 +29 +40 жарко 1008.9 988.5
12 18.07 ЮЗ 2 10 км 9/9 1500 м
[Cb calv]
+26.0 +13.5 46 +28 +29 жарко 1009.5 989.0
15 18.07 ЮЗ 2 10 км 9/4 1200 м
[Cb calv Ac trans]
+25.9 +12.7 44 +28 +29 жарко 1010.0 989.5
18 18.07 СЗ 4
{10}
10 км 3/0
[Ci fib]
+22.2 +10.7 48 +24 +24 комфорт 1012.4 991.5 +29.2

 

Местоположение метеостанции Симферополь (Крым, Россия): широта 45.03 долгота 33.97 высота над уровнем моря 181 м.

В архиве по умолчанию представлена погода в Симферополе за последнюю неделю. Архивные данные за месяц целиком и за предыдущие месяцы, начиная с января 2011 года, Вы можете получить, выбрав интересующий диапазон дат из раскрывающегося списка и нажав кнопку "Ввод!".


*Определитесь, кто Вы:
робот инопланетянин человек

Внимание! Время в таблицах - всемирное. Для получения местного времени необходимо прибавить поправку, которая равна 3 ч.

Смотрите также архив погоды в соседних городах и на ближайших метеорологических станциях:

Погода в Симферополе город (Крым, Россия) (15 км)
Погода в Почтовом (Крым, Россия) (22 км)
Погода на Ангарском Перевале (Крым, Россия) (43 км)
Погода в Белогорске (Крым, Россия) (50 км)
Погода в Евпатории (Крым, Россия) (50 км)
Погода в Алуште (Крым, Россия) (52 км)
Погода в Севастополе (город Севастополь, Россия) (57 км)
Погода в Клепинино (Крым, Россия) (58 км)
Погода в Никитском саду (Крым, Россия) (61 км)
Погода на Ай-Петри (Крым, Россия) (63 км)

Пояснения к столбцам:

Ветер - указаны скорость ветра в м/с - средняя за 10 мин, порывы в срок и между сроками (в фигурных скобках) и направление, откуда дует ветер: С - северный, СВ - северо-восточный, В - восточный, ЮВ - юго-восточный, Ю - южный, ЮЗ - юго-западный, З - западный, СЗ - северо-западный.
Видимость - горизонтальная дальность видимости в метрах или километрах. При видимости от 1 до 10 км при отсутствии осадков обычно наблюдается дымка, при ухудшении видимости до 1 км и менее - туман. В сухую погоду видимость может ухудшаться дымом, пылью или мглою.
Явления - указаны атмосферные явления, наблюдавшиеся в срок или в последний час перед сроком; фигурными скобками обозначены явления, наблюдавшиеся между сроками (за 1-3 часа до срока); квадратными скобками обозначены град или гололедные отложения с указанием их диаметра в мм.
Облачность - указаны через наклонную черту общая и нижняя облачность в баллах и высота нижней границы облаков в метрах; квадратными скобками обозначены формы облаков: Ci - перистые, Cs - перисто-слоистые, Cc - перисто-кучевые, Ac - высококучевые, As - высокослоистые, Sc - слоисто-кучевые, Ns - слоисто-дождевые, Cu - кучевые, Cb - кучево-дождевые. Подробнее классификацию облаков см. в Атласе облаков (PDF).
T - Температура воздуха - температура, измеренная на высоте 2 м над землей.
Td - Температура точки росы - температура, при понижении до которой содержащийся в воздухе водяной пар достигнет насыщения.
f - Относительная влажность воздуха - влажноcть воздуха, измеренная на высоте 2 м над землей.
Te - Эффективная температура - температура, которую ощущает одетый по сезону человек в тени. Характеристика душности погоды. При расчете учитывается влияние влажности воздуха и скорости ветра на теплоощущения человека.
Tes - Эффективная температура на солнце - температура, которую ощущает человек, с поправкой на солнечный нагрев. Характеристика знойности погоды. Зависит от высоты солнца над горизонтом, облачности и скорости ветра. Ночью, в пасмурную погоду, а также при ветре 12 м/с и более поправка равна нулю.
P - Атмосферное давление - приведенное к уровню моря атмосферное давление.
Po - Атмосферное давление - измеренное на уровне метеостанции атмосферное давление.
Tmin - Минимальная температура - минимум температуры воздуха на высоте 2 м над землей.
Tmax - Максимальная температура - максимум температуры воздуха на высоте 2 м над землей.
R - Количество осадков - Количество выпавших осадков за период времени, мм. При наведении курсора мыши на число - период времени, за который выпало указанное количество осадков.
R24 - Количество осадков - Количество выпавших осадков за 24 часа, мм.
S - Снежный покров - Высота снежного покрова, см. При наведении курсора мыши на число - состояние снежного покрова и степень покрытия местности в баллах.